Weather History for Sylvania, GA

Change the Weather History Date:

Monday, January 7, 2013

  Actual Average (KSAV) Record (KSAV)
Temperature  
Mean Temperature 47 °F 49 °F  
Max Temperature 59 °F 60 °F 79 °F (1991)
Min Temperature 35 °F 38 °F 19 °F (2014)
Degree Days  
Heating Degree Days 18 16  
Month to date heating degree days 112  
Since 1 July heating degree days 802  
Cooling Degree Days 0 0  
Month to date cooling degree days 0  
Year to date cooling degree days 0  
Moisture  
Dew Point 40 °F    
Average Humidity 77    
Maximum Humidity 100    
Minimum Humidity 48    
Precipitation  
Precipitation 0.00 in 0.11 in 2.40 in (1990)
Month to date precipitation 0.74  
Year to date precipitation 0.74  
Sea Level Pressure  
Sea Level Pressure 30.33 in    
Wind  
Wind Speed 5 mph (NE)    
Max Wind Speed 12 mph    
Max Gust Speed 21 mph    
Visibility 10 miles    
Events      
T = Trace of Precipitation, MM = Missing Value Source: NWS Daily Summary

Daily Weather History Graph

Daily Weather History Graph

Search for Another Location

Airport:

Trip Planner

Search our weather history database for the weather conditions in past years. The results will help you decide how hot, cold, wet, or windy it might be!

Date:

Astronomy

Jan. 07, 2013 Rise Set
Actual Time 7:29 AM EST 5:36 PM EST
Civil Twilight 7:02 AM EST 6:03 PM EST
Nautical Twilight 6:31 AM EST 6:34 PM EST
Astronomical Twilight 6:01 AM EST 7:03 PM EST
Moon 2:55 AM EST (1/7) 1:43 PM EST (1/7)
Length of Visible Light 11h 01m
Length of Day
10h 07m
Waning Crescent, 23% of the Moon is Illuminated
Jan 7
Waning Crescent
Jan 11
New
Jan 18
First Quarter
Jan 26
Full
Feb 3
Last Quarter

Hourly Weather History & Observations

Time (EST) Temp. Windchill Dew Point Humidity Pressure Visibility Wind Dir Wind Speed Gust Speed Precip Events Conditions
12:35 AM 47.3 °F - 41.5 °F 80% 30.23 in 10.0 mi NNW 8.1 mph - N/A   Clear
12:55 AM 46.6 °F - 41.2 °F 81% 30.24 in 10.0 mi NNW 6.9 mph - N/A   Clear
1:35 AM 45.1 °F 42.8 °F 40.3 °F 83% 30.24 in 10.0 mi NNW 4.6 mph - N/A   Clear
1:55 AM 44.2 °F 41.0 °F 40.1 °F 85% 30.24 in 10.0 mi NNW 5.8 mph - N/A   Clear
2:15 AM 43.7 °F 41.1 °F 39.6 °F 85% 30.24 in 10.0 mi NNW 4.6 mph - N/A   Clear
2:35 AM 43.0 °F 41.3 °F 39.2 °F 86% 30.25 in 10.0 mi NNW 3.5 mph - N/A   Clear
2:55 AM 43.0 °F 41.3 °F 39.0 °F 86% 30.25 in 10.0 mi NNW 3.5 mph - N/A   Clear
3:35 AM 41.9 °F 40.0 °F 38.5 °F 88% 30.25 in 10.0 mi North 3.5 mph - N/A   Clear
3:55 AM 41.7 °F 39.8 °F 38.5 °F 88% 30.25 in 10.0 mi North 3.5 mph - N/A   Clear
4:15 AM 40.8 °F 38.8 °F 37.9 °F 89% 30.25 in 10.0 mi North 3.5 mph - N/A   Clear
4:35 AM 40.1 °F 38.0 °F 37.8 °F 91% 30.26 in 10.0 mi North 3.5 mph - N/A   Clear
4:55 AM 39.7 °F 37.6 °F 37.8 °F 93% 30.26 in 10.0 mi North 3.5 mph - N/A   Clear
5:15 AM 39.4 °F 37.2 °F 37.6 °F 93% 30.27 in 10.0 mi North 3.5 mph - N/A   Clear
5:55 AM 38.7 °F - 37.4 °F 95% 30.27 in 10.0 mi Calm Calm - N/A   Clear
6:15 AM 37.6 °F 35.1 °F 36.1 °F 95% 30.28 in 10.0 mi North 3.5 mph - N/A   Clear
6:35 AM 35.2 °F - 34.7 °F 98% 30.30 in 10.0 mi Calm Calm - N/A   Clear
6:55 AM 35.2 °F - 35.2 °F 100% 30.30 in 10.0 mi Calm Calm - N/A   Clear
7:15 AM 38.1 °F 34.6 °F 38.1 °F 100% 30.31 in 10.0 mi NNE 4.6 mph - N/A   Clear
7:35 AM 38.7 °F 35.2 °F 37.6 °F 96% 30.32 in 10.0 mi NNE 4.6 mph - N/A   Clear
7:55 AM 39.6 °F 35.4 °F 37.9 °F 94% 30.32 in 10.0 mi NNE 5.8 mph - N/A   Clear
8:15 AM 40.6 °F 37.5 °F 38.3 °F 91% 30.34 in 10.0 mi NNE 4.6 mph - N/A   Clear
8:35 AM 42.6 °F 39.0 °F 38.7 °F 86% 30.34 in 10.0 mi NE 5.8 mph - N/A   Clear
8:55 AM 43.5 °F 40.1 °F 39.2 °F 85% 30.35 in 10.0 mi NE 5.8 mph - N/A   Clear
9:15 AM 45.7 °F 42.0 °F 39.6 °F 79% 30.36 in 10.0 mi ENE 6.9 mph - N/A   Clear
9:35 AM 46.9 °F - 39.6 °F 76% 30.37 in 10.0 mi ENE 6.9 mph - N/A   Clear
9:55 AM 48.2 °F - 39.6 °F 72% 30.37 in 10.0 mi ENE 9.2 mph - N/A   Clear
10:15 AM 49.1 °F - 39.4 °F 69% 30.38 in 10.0 mi ENE 5.8 mph - N/A   Clear
10:35 AM 50.7 °F - 39.2 °F 65% 30.38 in 10.0 mi East 10.4 mph - N/A   Clear
10:55 AM 51.8 °F - 38.7 °F 61% 30.38 in 10.0 mi ENE 10.4 mph 17.3 mph N/A   Clear
11:15 AM 53.6 °F - 38.5 °F 57% 30.37 in 10.0 mi East 9.2 mph 20.7 mph N/A   Clear
11:35 AM 55.4 °F - 39.0 °F 54% 30.37 in 10.0 mi East 11.5 mph 17.3 mph N/A   Clear
11:55 AM 55.8 °F - 38.5 °F 52% 30.36 in 10.0 mi ENE 11.5 mph 17.3 mph N/A   Clear
12:35 PM 57.0 °F - 38.7 °F 50% 30.34 in 10.0 mi East 8.1 mph - N/A   Clear
12:55 PM 56.1 °F - 38.3 °F 51% 30.34 in 10.0 mi East 8.1 mph - N/A   Clear
1:35 PM 59.0 °F - 39.6 °F 49% 30.32 in 10.0 mi East 5.8 mph - N/A   Clear
1:55 PM 59.0 °F - 39.4 °F 48% 30.32 in 10.0 mi ENE 9.2 mph - N/A   Clear
2:15 PM 58.1 °F - 39.0 °F 49% 30.33 in 10.0 mi ENE 4.6 mph - N/A   Clear
2:55 PM 57.2 °F - 39.9 °F 52% 30.34 in 10.0 mi SE 5.8 mph - N/A   Clear
3:15 PM 57.2 °F - 40.1 °F 53% 30.34 in 10.0 mi ESE 6.9 mph - N/A   Clear
3:35 PM 56.5 °F - 39.7 °F 54% 30.34 in 10.0 mi ESE 4.6 mph - N/A   Clear
3:55 PM 56.3 °F - 40.5 °F 55% 30.35 in 10.0 mi ESE 3.5 mph - N/A   Clear
4:15 PM 56.3 °F - 40.8 °F 56% 30.35 in 10.0 mi East 4.6 mph - N/A   Clear
4:35 PM 56.3 °F - 41.0 °F 57% 30.35 in 10.0 mi ESE 4.6 mph - N/A   Clear
4:55 PM 55.8 °F - 41.0 °F 58% 30.35 in 10.0 mi ESE 4.6 mph - N/A   Clear
5:15 PM 54.7 °F - 41.7 °F 62% 30.35 in 10.0 mi Calm Calm - N/A   Clear
5:35 PM 53.1 °F - 42.1 °F 66% 30.35 in 10.0 mi Calm Calm - N/A   Clear
5:55 PM 50.2 °F - 42.1 °F 74% 30.36 in 10.0 mi Calm Calm - N/A   Clear
6:15 PM 47.5 °F - 42.4 °F 83% 30.37 in 10.0 mi NE 3.5 mph - N/A   Clear
6:35 PM 47.3 °F - 42.4 °F 83% 30.37 in 10.0 mi NE 3.5 mph - N/A   Clear
6:55 PM 46.9 °F - 42.3 °F 84% 30.37 in 10.0 mi ENE 3.5 mph - N/A   Clear
7:15 PM 47.1 °F - 41.7 °F 81% 30.38 in 10.0 mi East 3.5 mph - N/A   Clear
7:35 PM 45.1 °F 43.7 °F 41.9 °F 88% 30.38 in 10.0 mi ENE 3.5 mph - N/A   Clear
7:55 PM 45.1 °F 42.0 °F 41.4 °F 87% 30.38 in 10.0 mi East 5.8 mph - N/A   Clear
8:15 PM 46.8 °F - 41.0 °F 80% 30.38 in 10.0 mi East 3.5 mph - N/A   Clear
8:35 PM 46.0 °F - 40.5 °F 81% 30.38 in 10.0 mi Calm Calm - N/A   Clear
8:55 PM 45.1 °F - 41.0 °F 85% 30.38 in 10.0 mi Calm Calm - N/A   Clear
9:15 PM 45.5 °F 43.2 °F 40.6 °F 83% 30.37 in 10.0 mi East 4.6 mph - N/A   Clear
9:35 PM 45.5 °F 44.2 °F 40.3 °F 82% 30.37 in 10.0 mi East 3.5 mph - N/A   Clear
9:55 PM 43.3 °F 40.7 °F 39.4 °F 86% 30.36 in 10.0 mi ENE 4.6 mph - N/A   Clear
10:15 PM 43.7 °F 42.1 °F 39.6 °F 85% 30.35 in 10.0 mi East 3.5 mph - N/A   Clear
10:35 PM 43.7 °F - 39.2 °F 84% 30.36 in 10.0 mi Calm Calm - N/A   Clear
10:55 PM 40.5 °F - 38.3 °F 92% 30.36 in 10.0 mi Calm Calm - N/A   Clear
11:15 PM 41.2 °F - 39.0 °F 92% 30.36 in 10.0 mi Calm Calm - N/A   Clear
11:35 PM 42.8 °F 40.1 °F 39.4 °F 88% 30.36 in 10.0 mi NE 4.6 mph - N/A   Clear
11:55 PM 43.5 °F - 39.4 °F 85% 30.37 in 10.0 mi Calm Calm - N/A   Clear